Temperature
32 32 31 31 32 32 32 33 32 32 34 33 31 30 30 31 31 31 30 29 28 27 26 25 24 23 22 22 21 21 21 20 20 20 20 20 19 19 19 19 19 19 19 19
32 32 32 33 33 33 33 32 32 33 34 33 31 30 31 31 31 31 30 29 28 27 26 25 24 24 23 22 21 21 21 20 20 20 20 20 19 19 19 19 19 19 19 18
31 32 33 33 33 33 33 32 33 33 33 33 31 29 30 31 31 31 30 30 29 28 26 25 25 24 23 22 21 21 21 20 20 20 20 19 19 19 19 19 19 19 18 18
32 34 34 34 34 33 32 34 34 33 32 31 31 28 29 30 31 31 30 30 29 28 27 26 25 24 23 22 21 21 21 20 20 20 20 19 19 19 19 19 19 18 18 18
32 33 34 33 34 34 33 34 34 33 31 31 30 29 28 30 29 30 30 30 30 29 28 26 25 24 23 23 22 21 20 20 20 20 19 19 19 19 19 18 18 18 18 18
33 34 34 34 35 35 34 34 33 32 31 29 30 29 28 29 30 30 31 30 29 29 28 27 26 24 24 23 22 21 20 20 20 19 19 19 19 19 18 18 18 18 18 18
32 33 35 35 34 35 34 32 31 30 29 29 30 30 29 31 31 31 31 30 29 29 28 27 25 24 24 23 22 21 20 20 20 19 19 19 19 18 18 18 18 18 18 17
31 32 34 35 34 33 34 33 30 29 29 29 30 29 30 31 31 32 31 30 29 28 28 27 25 24 23 23 22 21 20 20 19 19 19 19 19 18 18 18 18 18 18 17
31 32 34 35 35 34 33 33 33 32 31 30 29 29 30 30 31 31 31 30 30 29 28 27 26 25 24 23 22 21 20 20 19 19 19 19 18 18 18 18 18 17 17 17
32 31 33 35 35 35 34 34 33 32 30 29 29 29 28 28 30 30 30 29 29 28 28 27 26 25 24 23 22 21 20 20 19 19 19 19 18 18 18 18 17 17 17 17
33 32 32 33 33 33 33 33 32 32 32 30 29 28 30 29 30 30 30 28 28 28 27 27 26 25 24 23 22 21 20 20 19 19 19 18 18 18 17 17 17 17 17 17
33 32 31 32 33 34 33 32 32 31 30 31 30 28 31 30 30 30 30 29 28 28 27 26 25 25 24 23 22 21 20 20 19 19 19 18 18 18 17 17 17 17 17 16
32 31 30 31 32 32 32 32 32 32 31 30 30 28 30 30 29 30 29 28 28 27 26 25 25 24 23 23 22 21 20 20 19 19 18 18 18 18 17 17 17 16 16 16
31 31 30 30 30 30 30 31 32 32 31 31 30 28 29 29 29 29 28 28 27 27 26 25 24 23 22 22 21 21 20 20 19 19 18 18 18 17 17 17 17 16 16 16
31 30 30 31 31 31 31 32 32 32 31 31 30 29 29 29 29 28 28 27 26 26 25 24 23 22 22 21 21 20 20 19 19 19 18 18 18 17 17 17 16 16 16 16
30 29 30 30 31 31 31 32 32 32 31 31 30 29 30 29 28 27 27 27 26 25 25 23 23 22 21 21 20 20 19 19 19 18 18 18 17 17 17 17 16 16 16 15
30 29 28 29 31 31 30 31 31 31 32 31 29 29 29 28 27 27 26 26 25 24 24 23 22 21 21 20 20 19 19 19 18 18 18 17 17 17 17 16 16 16 15 15
29 28 28 29 29 28 30 32 32 31 31 31 30 29 28 28 27 25 25 24 24 23 22 22 21 21 20 20 19 19 18 18 18 17 17 17 17 16 16 16 16 15 15 15
29 28 28 28 28 29 30 31 31 30 29 29 29 29 28 27 26 25 24 23 23 22 22 21 21 20 20 20 19 19 18 18 17 17 17 16 16 16 16 16 15 15 15 15
29 28 28 27 27 27 28 30 30 29 27 27 27 27 27 27 26 24 23 23 22 21 20 20 20 20 20 19 19 18 18 17 17 17 16 16 16 16 15 15 15 15 15 15
27 27 27 27 27 27 28 29 29 27 26 26 26 26 25 25 24 23 22 21 21 20 19 19 19 19 19 18 18 18 17 17 17 16 16 16 16 16 15 15 15 14 14 14
27 27 26 26 26 25 27 28 26 25 25 25 25 24 24 23 23 22 21 20 20 19 19 18 18 18 18 18 18 17 17 16 16 16 16 16 15 15 15 15 14 14 14 14
27 27 27 26 25 25 25 25 24 24 24 24 24 23 23 22 22 21 20 19 19 19 18 18 18 17 17 17 17 16 16 16 15 15 15 15 15 15 14 14 14 14 14 13
26 27 26 25 25 25 25 24 23 23 23 23 23 23 22 22 21 20 19 19 18 18 17 17 17 17 17 16 16 16 15 15 15 15 15 15 14 14 14 14 14 14 14 13
24 25 25 24 25 25 24 23 23 23 22 22 22 22 22 21 20 19 19 18 18 17 17 16 16 16 16 16 16 15 15 15 14 14 14 14 14 14 14 14 13 13 13 13
23 24 24 23 23 24 23 23 22 22 22 22 21 21 21 20 19 19 18 18 17 17 16 16 16 16 15 15 15 15 14 14 14 14 14 14 14 14 14 13 13 13 13 13
Wind_Speed
12 11 8 9 10 10 9 6 5 3 2 1 2 4 4 4 5 7 8 10 10 10 10 10 10 10 9 9 7 6 4 4 3 2 2 2 2 3 3 3 4 4 5 5
12 12 10 12 12 11 8 7 6 2 1 3 1 3 5 6 7 6 8 9 10 11 12 11 10 9 9 9 7 6 5 4 3 2 1 2 2 2 3 4 4 5 5 4
13 10 11 12 13 9 6 8 7 4 3 4 1 4 5 6 7 6 6 9 11 12 12 11 10 9 10 9 7 6 5 5 3 2 2 2 2 2 3 4 4 4 4 4
13 12 11 11 10 7 7 8 8 6 4 4 4 4 5 5 5 6 6 8 11 12 13 12 12 10 8 9 8 8 6 5 3 2 2 2 3 3 3 3 3 3 3 4
12 11 11 10 9 8 8 9 8 7 5 6 4 3 3 5 6 6 7 7 9 11 12 11 13 11 10 10 10 8 7 5 4 3 3 3 3 3 3 2 3 3 3 4
15 13 12 11 10 9 9 10 9 7 5 6 7 5 3 3 4 6 7 8 9 10 11 11 12 11 9 10 10 9 7 5 4 3 3 3 3 2 3 3 3 2 2 3
15 14 12 10 10 9 10 8 6 5 5 5 5 3 2 3 5 7 9 10 11 10 11 11 11 11 9 9 10 10 8 6 5 4 3 2 2 3 3 2 2 2 2 2
12 11 11 9 9 9 10 9 7 6 5 4 3 1 3 3 2 5 9 10 11 10 11 11 11 10 10 10 10 10 9 6 5 4 3 2 2 2 2 2 1 2 2 2
8 9 11 10 10 11 10 9 10 9 8 5 2 1 2 3 3 4 5 8 10 10 11 12 12 12 11 10 10 10 9 7 6 5 4 3 2 2 2 2 2 2 2 2
11 10 9 8 10 12 11 10 7 7 5 6 3 1 1 5 6 6 4 5 6 7 9 10 10 11 11 11 10 10 9 7 5 5 4 4 2 2 2 2 3 3 3 3
13 11 10 9 10 9 9 11 8 7 7 7 4 1 4 3 4 5 7 6 6 7 6 8 9 9 10 11 11 10 9 7 6 5 4 4 3 2 2 2 2 3 2 2
10 10 10 10 7 8 9 10 10 8 8 9 6 1 1 2 3 5 5 6 7 7 7 7 9 9 9 10 10 9 9 8 7 6 5 4 3 3 3 3 2 2 1 1
5 8 10 10 8 7 10 11 12 11 9 8 6 1 1 2 2 4 7 6 7 7 8 7 7 8 7 8 8 8 7 7 7 7 6 5 4 3 3 2 2 2 1 1
5 10 12 13 8 7 10 13 13 11 9 9 4 3 3 1 2 6 7 6 6 7 7 7 7 7 7 7 7 6 6 5 6 6 6 5 4 3 3 2 2 2 1 1
8 11 13 15 13 10 12 14 13 11 10 10 5 2 3 3 3 6 7 6 5 5 5 6 6 6 6 6 6 6 5 4 4 5 5 5 4 3 3 2 2 1 1 1
9 10 13 15 15 13 15 13 11 11 8 7 5 1 3 4 4 5 5 6 6 5 4 5 6 6 6 6 6 6 5 5 5 4 4 4 3 3 2 2 2 2 1 0
10 9 11 14 14 14 14 10 9 8 7 6 5 2 3 3 4 5 5 5 5 4 4 5 5 6 6 6 6 5 5 4 4 4 3 3 3 3 2 2 1 1 2 1
8 9 9 12 12 14 8 7 6 6 5 4 2 1 2 3 6 7 6 5 4 4 5 4 4 4 5 6 6 5 5 5 4 4 3 2 2 2 2 1 1 0 0 0
9 8 9 10 12 11 7 5 5 4 4 3 1 1 2 4 4 6 7 6 4 4 5 4 3 3 4 5 5 5 5 5 4 3 2 1 1 1 1 1 1 1 1 0
11 9 10 10 12 11 5 3 3 4 3 3 4 4 3 2 1 4 5 6 7 7 5 4 3 4 4 4 5 5 5 4 3 2 2 1 1 1 1 1 1 0 0 1
11 10 12 12 13 6 4 5 4 5 1 3 4 5 4 4 5 5 6 6 6 6 6 5 4 4 5 4 4 4 3 3 3 3 2 1 1 1 1 1 1 1 1 1
10 9 10 11 12 5 4 2 2 3 5 5 5 5 5 5 6 7 6 5 5 5 5 4 4 5 5 5 4 3 3 3 2 2 2 1 1 1 1 1 1 1 1 1
6 5 4 3 2 3 5 6 4 4 5 4 4 5 4 4 5 6 5 5 6 5 5 4 3 5 4 4 4 3 3 3 2 2 1 1 2 1 1 1 1 1 2 2
3 2 2 1 2 3 5 5 4 5 5 5 4 3 3 4 4 4 5 6 5 4 5 4 4 5 4 3 3 3 3 2 1 1 1 1 2 2 1 0 0 0 0 1
5 3 2 2 2 2 3 4 4 5 4 4 4 4 3 3 4 4 4 4 4 4 5 4 3 3 3 3 3 2 2 2 1 1 1 1 1 1 2 1 1 1 2 1
5 5 3 0 1 0 1 2 3 2 2 2 3 3 3 4 4 4 3 4 4 4 4 3 2 2 3 3 3 3 2 2 1 0 1 1 1 1 1 2 2 4 1 2
Wind_Direction
240 240 244 253 254 255 263 281 292 244 220 249 157 153 192 204 189 175 163 156 154 150 145 143 144 141 134 126 119 117 115 106 103 86 86 85 81 87 87 92 81 70 63 59
244 247 251 256 260 266 286 288 281 262 205 247 186 172 201 204 197 181 167 159 153 146 145 146 151 147 138 131 132 136 125 113 102 96 102 117 108 99 94 78 84 74 69 64
245 242 238 248 259 263 271 277 285 280 257 263 221 250 218 212 181 172 170 161 159 159 155 153 152 148 145 142 141 130 112 109 105 101 97 90 100 81 82 84 80 68 68 68
251 249 245 246 256 270 269 276 275 276 275 273 246 250 231 201 184 171 181 170 163 159 156 155 155 152 147 144 138 124 116 106 99 98 96 109 103 94 85 89 93 90 84 82
254 250 252 258 265 267 269 280 286 288 295 287 256 247 237 201 185 180 178 173 158 153 153 154 153 151 151 149 139 131 121 115 108 105 90 91 95 97 91 94 92 92 90 85
260 254 252 251 257 252 265 273 271 272 272 261 258 238 224 190 179 178 172 165 152 143 145 146 144 145 148 145 139 134 125 123 119 111 100 97 92 95 112 116 120 109 101 93
250 247 242 246 252 248 251 264 270 267 255 249 242 241 183 170 158 161 160 153 148 144 145 145 142 149 146 143 138 132 131 134 134 127 116 120 129 124 118 124 122 107 97 91
246 238 230 233 245 252 257 259 260 274 274 281 266 228 130 108 116 138 146 146 145 148 150 147 145 145 147 144 138 138 139 142 143 138 130 132 144 120 104 93 92 90 74 86
257 252 233 221 232 244 256 264 269 275 276 276 246 180 120 101 104 98 124 142 145 150 151 150 150 152 151 146 143 143 141 145 148 142 138 128 118 97 98 93 72 72 74 90
254 270 254 231 230 232 244 264 276 276 284 283 247 215 218 183 162 151 144 118 122 131 145 147 149 153 153 151 143 140 138 142 142 142 147 139 128 105 95 88 87 67 52 55
256 266 262 242 234 242 245 257 264 277 278 285 284 246 190 199 159 140 126 128 136 141 149 142 140 144 149 149 147 145 144 145 149 150 139 123 129 127 123 105 91 88 66 51
249 264 267 255 238 249 253 259 262 267 273 281 280 213 94 87 86 107 108 131 137 139 143 137 137 142 145 149 148 147 149 154 155 145 136 134 142 144 133 126 120 117 116 91
258 258 262 258 237 241 254 252 256 263 268 271 282 185 168 100 73 100 105 113 124 130 124 122 127 131 136 133 130 141 151 156 152 144 141 144 151 147 144 141 144 144 136 123
268 252 257 264 256 240 249 251 249 255 263 270 261 171 185 129 137 102 97 108 116 115 121 118 113 112 114 119 125 134 143 152 151 145 148 150 156 152 152 155 157 148 146 137
251 257 265 272 270 259 258 253 249 251 265 275 268 199 158 124 96 108 118 125 118 113 118 115 117 117 118 121 126 132 136 133 134 143 149 147 150 154 155 161 159 152 159 159
241 263 269 270 268 261 258 256 255 253 254 254 257 228 88 68 80 98 106 118 117 120 121 116 111 119 134 137 135 134 137 136 134 135 137 137 145 145 151 162 169 160 167 156
237 250 267 269 266 266 258 260 263 267 260 254 251 206 123 86 74 89 97 103 113 112 98 110 124 138 149 141 135 141 144 141 136 133 138 150 157 167 173 191 157 170 186 190
243 245 253 264 267 257 258 271 258 265 273 288 284 113 124 106 100 90 80 82 99 114 108 105 117 127 139 146 151 150 150 141 134 136 144 151 165 170 170 158 143 163 137 153
242 247 252 255 259 255 251 263 274 268 287 332 325 173 137 116 108 83 75 73 79 79 99 103 116 121 133 145 145 146 145 140 137 139 142 156 156 157 175 177 180 180 164 119
238 236 246 250 259 264 257 289 301 264 229 19 21 35 51 118 177 86 75 74 68 62 61 72 82 106 116 119 132 137 138 133 135 134 122 122 146 166 177 184 177 142 177 154
230 232 237 248 255 257 303 314 287 255 221 43 55 51 43 50 57 82 75 73 69 74 70 68 74 81 86 88 97 119 128 131 129 121 120 114 108 150 161 145 139 168 186 149
233 236 235 242 250 247 2 345 0 60 56 52 57 56 49 64 77 83 78 75 71 71 79 73 72 82 84 87 90 94 90 95 109 120 128 140 138 217 153 133 148 160 171 188
240 255 247 240 230 84 58 68 65 74 69 55 57 71 69 81 86 90 91 89 75 71 74 69 80 93 89 87 91 88 75 82 97 113 132 162 156 131 112 162 173 175 194 223
269 262 226 191 148 102 86 85 78 73 64 59 67 75 82 82 87 88 92 91 83 71 64 67 92 94 86 77 79 80 84 87 121 144 149 162 146 141 123 122 180 227 256 277
313 291 226 211 174 141 88 64 59 69 62 54 63 61 64 79 92 84 94 95 86 83 73 66 75 99 100 89 83 80 81 90 92 163 188 185 155 140 121 95 41 25 24 61
311 314 299 278 63 14 90 67 74 83 80 58 51 54 55 79 87 90 95 96 96 90 83 82 68 88 108 104 89 74 71 81 81 314 239 208 153 144 159 135 77 49 78 106
Height
1468 1470 1473 1469 1464 1463 1462 1463 1465 1461 1454 1458 1464 1468 1469 1468 1470 1472 1475 1479 1483 1487 1491 1494 1496 1498 1500 1501 1502 1503 1504 1505 1505 1506 1506 1506 1507 1507 1508 1508 1507 1507 1507 1507
1468 1469 1463 1460 1457 1457 1459 1464 1463 1457 1452 1458 1464 1468 1467 1466 1468 1470 1472 1476 1481 1485 1489 1493 1495 1498 1500 1501 1502 1503 1504 1505 1506 1506 1507 1508 1508 1509 1509 1509 1509 1509 1509 1509
1468 1463 1458 1458 1457 1458 1460 1463 1461 1460 1456 1456 1465 1473 1468 1464 1465 1468 1471 1474 1478 1482 1487 1491 1494 1497 1499 1501 1502 1503 1504 1505 1506 1507 1507 1508 1509 1509 1510 1510 1510 1510 1510 1510
1461 1455 1453 1455 1455 1456 1464 1453 1453 1455 1462 1469 1468 1487 1474 1466 1466 1468 1470 1472 1476 1480 1484 1488 1492 1496 1499 1501 1502 1503 1504 1505 1506 1507 1507 1508 1509 1509 1510 1510 1510 1511 1511 1511
1459 1453 1453 1456 1453 1451 1454 1448 1451 1455 1463 1470 1469 1483 1480 1465 1469 1467 1468 1471 1473 1478 1482 1486 1490 1494 1497 1500 1501 1502 1504 1505 1506 1506 1507 1508 1509 1510 1510 1511 1511 1511 1511 1511
1453 1448 1448 1449 1447 1446 1447 1449 1452 1454 1464 1485 1474 1480 1482 1468 1465 1464 1465 1469 1472 1476 1481 1486 1490 1493 1496 1499 1501 1502 1503 1504 1505 1506 1507 1508 1509 1510 1510 1511 1511 1512 1512 1512
1457 1448 1444 1445 1448 1446 1447 1460 1477 1485 1489 1485 1465 1472 1473 1458 1455 1458 1462 1466 1471 1475 1480 1485 1489 1493 1496 1498 1500 1501 1503 1504 1505 1506 1507 1508 1509 1509 1510 1511 1511 1512 1512 1512
1463 1461 1445 1443 1447 1452 1449 1455 1478 1492 1492 1482 1469 1475 1466 1455 1455 1457 1461 1465 1469 1474 1479 1483 1488 1491 1495 1497 1500 1501 1502 1504 1505 1506 1507 1507 1508 1510 1510 1511 1511 1512 1512 1512
1459 1459 1441 1439 1441 1444 1451 1452 1448 1462 1470 1480 1476 1471 1464 1458 1458 1459 1461 1464 1468 1473 1477 1482 1486 1490 1494 1497 1499 1501 1502 1503 1505 1506 1507 1507 1509 1510 1510 1511 1511 1512 1512 1512
1447 1457 1442 1437 1438 1439 1443 1445 1451 1463 1481 1489 1481 1478 1478 1466 1461 1461 1463 1465 1469 1472 1477 1481 1485 1488 1492 1496 1498 1500 1501 1503 1504 1506 1507 1508 1509 1510 1510 1511 1511 1511 1511 1511
1442 1453 1449 1442 1446 1449 1448 1450 1452 1456 1460 1478 1490 1487 1461 1460 1459 1460 1463 1468 1469 1473 1477 1480 1484 1487 1491 1494 1497 1499 1500 1502 1504 1505 1506 1507 1508 1509 1510 1510 1510 1510 1510 1510
1442 1448 1454 1446 1439 1439 1444 1449 1453 1467 1468 1463 1472 1482 1454 1456 1458 1459 1463 1467 1469 1473 1477 1480 1483 1486 1490 1493 1496 1498 1500 1501 1503 1504 1505 1506 1507 1508 1509 1509 1509 1510 1510 1509
1445 1453 1466 1462 1453 1446 1448 1447 1447 1450 1457 1465 1474 1481 1458 1457 1460 1462 1464 1468 1471 1474 1477 1480 1483 1486 1489 1491 1494 1496 1499 1501 1502 1503 1504 1506 1506 1507 1508 1508 1509 1509 1509 1509
1448 1452 1461 1469 1460 1453 1455 1450 1445 1450 1460 1463 1466 1469 1461 1460 1462 1463 1465 1468 1472 1475 1477 1480 1483 1485 1488 1490 1492 1495 1498 1500 1502 1502 1503 1504 1505 1506 1507 1507 1507 1508 1508 1508
1448 1455 1453 1449 1445 1445 1449 1447 1444 1448 1450 1458 1459 1460 1459 1460 1461 1463 1466 1469 1473 1476 1478 1480 1483 1485 1488 1490 1492 1494 1497 1499 1500 1501 1502 1503 1504 1505 1505 1506 1506 1506 1506 1507
1448 1454 1454 1453 1445 1443 1446 1441 1441 1443 1446 1450 1454 1460 1455 1459 1462 1465 1467 1469 1472 1476 1479 1481 1482 1485 1488 1490 1491 1494 1496 1498 1499 1500 1501 1502 1503 1503 1504 1505 1505 1505 1505 1505
1448 1455 1461 1460 1446 1447 1452 1443 1443 1443 1443 1447 1456 1457 1456 1460 1463 1466 1468 1470 1473 1476 1479 1481 1482 1485 1487 1489 1491 1492 1494 1496 1497 1498 1499 1500 1501 1502 1503 1503 1503 1503 1503 1503
1450 1454 1458 1458 1457 1471 1451 1437 1438 1444 1445 1444 1448 1452 1456 1460 1465 1468 1470 1473 1474 1476 1478 1480 1482 1485 1487 1489 1490 1492 1493 1494 1495 1497 1498 1498 1499 1500 1500 1501 1501 1501 1501 1501
1445 1452 1457 1459 1463 1457 1447 1440 1440 1447 1453 1450 1451 1454 1457 1461 1465 1468 1471 1473 1475 1477 1477 1480 1481 1483 1486 1488 1489 1491 1492 1493 1494 1495 1496 1497 1498 1498 1498 1499 1499 1499 1499 1499
1443 1446 1455 1458 1466 1467 1453 1442 1442 1447 1459 1457 1456 1458 1459 1461 1466 1473 1473 1474 1476 1478 1478 1479 1482 1483 1485 1487 1488 1490 1491 1492 1493 1494 1494 1495 1496 1496 1496 1496 1496 1497 1497 1497
1449 1451 1455 1458 1461 1457 1449 1444 1445 1461 1465 1459 1459 1461 1463 1465 1469 1474 1474 1475 1477 1478 1479 1480 1482 1482 1484 1486 1488 1489 1490 1491 1491 1492 1493 1493 1494 1494 1494 1494 1494 1495 1495 1495
1448 1452 1454 1456 1463 1465 1451 1449 1456 1462 1460 1461 1462 1464 1467 1469 1471 1474 1476 1478 1478 1478 1479 1481 1482 1483 1484 1485 1486 1487 1489 1489 1490 1491 1491 1492 1492 1492 1493 1492 1492 1493 1493 1493
1442 1445 1447 1452 1458 1456 1455 1458 1461 1462 1463 1464 1465 1467 1469 1470 1472 1475 1477 1478 1479 1480 1480 1481 1482 1483 1484 1485 1486 1486 1487 1488 1489 1489 1490 1490 1491 1491 1491 1491 1491 1491 1491 1491
1443 1442 1445 1451 1452 1454 1457 1460 1462 1464 1465 1466 1467 1469 1470 1472 1475 1476 1477 1478 1480 1480 1481 1481 1482 1483 1484 1485 1485 1486 1486 1487 1488 1488 1488 1489 1489 1489 1489 1489 1489 1490 1489 1489
1450 1447 1449 1453 1454 1456 1459 1461 1463 1465 1466 1467 1469 1471 1472 1474 1475 1477 1479 1480 1481 1482 1482 1482 1483 1483 1484 1484 1484 1485 1485 1486 1486 1487 1487 1487 1487 1488 1488 1488 1488 1488 1488 1488
1453 1452 1453 1455 1456 1458 1461 1462 1464 1466 1467 1469 1470 1472 1473 1475 1476 1478 1479 1480 1481 1482 1482 1482 1483 1484 1483 1483 1483 1484 1484 1485 1485 1485 1486 1486 1486 1486 1486 1486 1486 1487 1487 1487